Artesia, NM

11:13 PM MST on February 24, 2017 (GMT -0700)
Artesia Municipal

Weather History for KATS - April, 2013

Change the Weather History Date:

Thursday, April 11, 2013

  Actual Average Record
Temperature  
Mean Temperature 52 °F -  
Max Temperature 71 °F 77 °F 94 °F (1972)
Min Temperature 32 °F 41 °F 26 °F (1989)
Degree Days  
Heating Degree Days 14    
Growing Degree Days 2 (Base 50)    
Moisture  
Dew Point 15 °F    
Average Humidity 23    
Maximum Humidity 41    
Minimum Humidity 11    
Precipitation  
Precipitation 0.00 in - - ()
Sea Level Pressure  
Sea Level Pressure 29.86 in    
Wind  
Wind Speed 6 mph (SSE)    
Max Wind Speed 15 mph    
Max Gust Speed 17 mph    
Visibility 10 miles    
Events      
Averages and records for this station are not official NWS values.
T = Trace of Precipitation, MM = Missing Value Source: NWS Daily Summary

Daily Weather History Graph

Daily Weather History Graph

Search for Another Location

Airport or City:

Trip Planner

Search our weather history database for the weather conditions in past years. The results will help you decide how hot, cold, wet, or windy it might be!

Date:

Astronomy

Apr. 11, 2013 Rise Set
Actual Time 6:32 AM MDT 7:25 PM MDT
Civil Twilight 6:07 AM MDT 7:50 PM MDT
Nautical Twilight 5:37 AM MDT 8:20 PM MDT
Astronomical Twilight 5:07 AM MDT 8:51 PM MDT
Moon 7:10 AM MDT (4/11) 8:56 PM MDT (4/11)
Length of Visible Light 13h 43m
Length of Day
12h 52m
New Moon, 2% of the Moon is Illuminated
Apr 11
New Moon
Apr 18
First Quarter
Apr 25
Full
May 2
Last Quarter
May 9
New

Hourly Weather History & Observations

Time (MDT) Temp. Windchill Dew Point Humidity Pressure Visibility Wind Dir Wind Speed Gust Speed Precip Events Conditions
12:15 AM 41.0 °F - 14.0 °F 33% 29.97 in 10.0 mi Calm Calm - N/A   Clear
12:35 AM 41.0 °F - 14.0 °F 33% 29.98 in 10.0 mi Calm Calm - N/A   Clear
12:55 AM 41.0 °F - 15.8 °F 36% 29.98 in 10.0 mi Calm Calm - N/A   Partly Cloudy
1:15 AM 41.0 °F - 15.8 °F 36% 29.98 in 10.0 mi Calm Calm - N/A   Partly Cloudy
1:35 AM 41.0 °F 38.0 °F 14.0 °F 33% 29.97 in 10.0 mi SE 4.6 mph - N/A   Clear
1:55 AM 39.2 °F 37.0 °F 14.0 °F 36% 29.97 in 10.0 mi SSE 3.5 mph - N/A   Clear
2:15 AM 41.0 °F 39.0 °F 14.0 °F 33% 29.96 in 10.0 mi SE 3.5 mph - N/A   Mostly Cloudy
2:35 AM 42.8 °F 38.6 °F 15.8 °F 34% 29.95 in 10.0 mi ESE 6.9 mph - N/A   Overcast
2:55 AM 44.6 °F 39.2 °F 14.0 °F 29% 29.93 in 10.0 mi ESE 10.4 mph - N/A   Mostly Cloudy
3:15 AM 41.0 °F 34.7 °F 14.0 °F 33% 29.93 in 10.0 mi SE 10.4 mph - N/A   Clear
3:35 AM 39.2 °F 33.6 °F 14.0 °F 36% 29.93 in 10.0 mi SSE 8.1 mph - N/A   Clear
3:55 AM 37.4 °F 32.1 °F 14.0 °F 38% 29.92 in 10.0 mi SSE 6.9 mph - N/A   Clear
4:15 AM 37.4 °F 32.1 °F 14.0 °F 38% 29.92 in 10.0 mi SSE 6.9 mph - N/A   Clear
4:35 AM 35.6 °F 30.7 °F 12.2 °F 38% 29.93 in 10.0 mi South 5.8 mph - N/A   Clear
4:55 AM 35.6 °F 31.7 °F 10.4 °F 35% 29.93 in 10.0 mi SSW 4.6 mph - N/A   Clear
5:15 AM 35.6 °F 29.9 °F 10.4 °F 35% 29.93 in 10.0 mi SSW 6.9 mph - N/A   Clear
5:35 AM 33.8 °F 26.4 °F 10.4 °F 38% 29.93 in 10.0 mi SSW 9.2 mph - N/A   Clear
5:55 AM 35.6 °F 29.9 °F 12.2 °F 38% 29.92 in 10.0 mi SSW 6.9 mph - N/A   Clear
6:15 AM 32.0 °F 24.8 °F 10.4 °F 41% 29.92 in 10.0 mi SSW 8.1 mph - N/A   Clear
6:35 AM 32.0 °F 24.2 °F 10.4 °F 41% 29.91 in 10.0 mi SW 9.2 mph - N/A   Clear
6:55 AM 32.0 °F 24.2 °F 10.4 °F 41% 29.91 in 10.0 mi SSW 9.2 mph - N/A   Clear
7:15 AM 35.6 °F 30.7 °F 12.2 °F 38% 29.91 in 10.0 mi SSW 5.8 mph - N/A   Clear
7:35 AM 37.4 °F 33.8 °F 14.0 °F 38% 29.91 in 10.0 mi SW 4.6 mph - N/A   Clear
7:55 AM 41.0 °F 36.4 °F 14.0 °F 33% 29.91 in 10.0 mi SSW 6.9 mph - N/A   Clear
8:15 AM 42.8 °F 39.3 °F 15.8 °F 34% 29.91 in 10.0 mi SSW 5.8 mph - N/A   Clear
8:35 AM 44.6 °F 40.2 °F 15.8 °F 31% 29.90 in 10.0 mi SSE 8.1 mph - N/A   Clear
8:55 AM 44.6 °F 40.7 °F 15.8 °F 31% 29.91 in 10.0 mi SSE 6.9 mph - N/A   Clear
9:15 AM 46.4 °F 44.3 °F 15.8 °F 29% 29.91 in 10.0 mi SE 4.6 mph - N/A   Clear
9:35 AM 48.2 °F - 15.8 °F 27% 29.90 in 10.0 mi SE 6.9 mph - N/A   Clear
9:55 AM 50.0 °F - 15.8 °F 26% 29.90 in 10.0 mi SE 8.1 mph - N/A   Clear
10:15 AM 53.6 °F - 15.8 °F 22% 29.89 in 10.0 mi SSE 6.9 mph - N/A   Clear
10:35 AM 55.4 °F - 17.6 °F 23% 29.89 in 10.0 mi ESE 5.8 mph - N/A   Clear
11:15 AM 57.2 °F - 15.8 °F 20% 29.88 in 10.0 mi SSE 5.8 mph - N/A   Clear
11:35 AM 59.0 °F - 14.0 °F 17% 29.87 in 10.0 mi SSE 4.6 mph - N/A   Clear
11:55 AM 59.0 °F - 14.0 °F 17% 29.86 in 10.0 mi WSW 3.5 mph - N/A   Clear
12:15 PM 60.8 °F - 14.0 °F 16% 29.85 in 10.0 mi ENE 5.8 mph - N/A   Clear
12:35 PM 62.6 °F - 14.0 °F 15% 29.85 in 10.0 mi East 5.8 mph - N/A   Clear
12:55 PM 64.4 °F - 14.0 °F 14% 29.84 in 10.0 mi NE 6.9 mph - N/A   Clear
1:15 PM 64.4 °F - 15.8 °F 15% 29.83 in 10.0 mi ENE 6.9 mph - N/A   Clear
1:35 PM 66.2 °F - 15.8 °F 14% 29.82 in 10.0 mi ENE 5.8 mph - N/A   Clear
1:55 PM 66.2 °F - 15.8 °F 14% 29.82 in 10.0 mi North 6.9 mph - N/A   Clear
2:15 PM 66.2 °F - 15.8 °F 14% 29.81 in 10.0 mi East 6.9 mph - N/A   Clear
2:35 PM 66.2 °F - 15.8 °F 14% 29.81 in 10.0 mi NNE 8.1 mph - N/A   Clear
2:55 PM 66.2 °F - 15.8 °F 14% 29.80 in 10.0 mi South 3.5 mph - N/A   Clear
3:15 PM 68.0 °F - 15.8 °F 13% 29.79 in 10.0 mi SSE 4.6 mph - N/A   Clear
3:35 PM 68.0 °F - 15.8 °F 13% 29.78 in 10.0 mi North 3.5 mph - N/A   Clear
3:55 PM 68.0 °F - 15.8 °F 13% 29.77 in 10.0 mi SE 4.6 mph - N/A   Clear
4:15 PM 69.8 °F - 17.6 °F 14% 29.75 in 10.0 mi SE 8.1 mph - N/A   Clear
4:35 PM 69.8 °F - 17.6 °F 14% 29.75 in 10.0 mi SSE 5.8 mph - N/A   Clear
4:55 PM 71.6 °F - 17.6 °F 13% 29.75 in 10.0 mi SE 10.4 mph - N/A   Clear
5:15 PM 71.6 °F - 17.6 °F 13% 29.75 in 10.0 mi South 8.1 mph - N/A   Clear
5:35 PM 71.6 °F - 15.8 °F 12% 29.75 in 10.0 mi SE 9.2 mph - N/A   Clear
5:55 PM 71.6 °F - 15.8 °F 12% 29.75 in 10.0 mi South 9.2 mph - N/A   Clear
6:15 PM 71.6 °F - 14.0 °F 11% 29.75 in 10.0 mi South 11.5 mph 17.3 mph N/A   Clear
6:35 PM 71.6 °F - 14.0 °F 11% 29.75 in 10.0 mi South 15.0 mph - N/A   Clear
6:55 PM 68.0 °F - 14.0 °F 12% 29.75 in 10.0 mi SSE 9.2 mph - N/A   Clear
7:15 PM 68.0 °F - 14.0 °F 12% 29.76 in 10.0 mi SSE 9.2 mph - N/A   Clear
7:35 PM 66.2 °F - 14.0 °F 13% 29.76 in 10.0 mi SSE 9.2 mph - N/A   Clear
7:55 PM 64.4 °F - 15.8 °F 15% 29.76 in 10.0 mi SE 10.4 mph - N/A   Clear
8:15 PM 64.4 °F - 15.8 °F 15% 29.77 in 10.0 mi SE 11.5 mph - N/A   Clear
8:35 PM 64.4 °F - 15.8 °F 15% 29.79 in 10.0 mi ESE 9.2 mph - N/A   Clear
8:55 PM 64.4 °F - 15.8 °F 15% 29.79 in 10.0 mi SE 8.1 mph - N/A   Clear
9:15 PM 62.6 °F - 14.0 °F 15% 29.79 in 10.0 mi SE 11.5 mph - N/A   Clear
9:35 PM 62.6 °F - 15.8 °F 16% 29.80 in 10.0 mi SE 10.4 mph - N/A   Clear
9:55 PM 62.6 °F - 15.8 °F 16% 29.80 in 10.0 mi SSE 10.4 mph - N/A   Clear
10:15 PM 60.8 °F - 14.0 °F 16% 29.81 in 10.0 mi SSE 8.1 mph - N/A   Clear
10:35 PM 59.0 °F - 14.0 °F 17% 29.81 in 10.0 mi South 8.1 mph - N/A   Clear
10:55 PM 59.0 °F - 14.0 °F 17% 29.81 in 10.0 mi SSE 11.5 mph - N/A   Clear
11:15 PM 59.0 °F - 14.0 °F 17% 29.81 in 10.0 mi SSE 9.2 mph - N/A   Clear
11:35 PM 57.2 °F - 14.0 °F 18% 29.82 in 10.0 mi SSE 9.2 mph - N/A   Clear
11:55 PM 57.2 °F - 14.0 °F 18% 29.82 in 10.0 mi SSE 8.1 mph - N/A   Clear